Regional Weather Roundup
Issued by NWS Charleston, WV

Home | Current Version | Previous Version | Graphics & Text | Print | Product List | Glossary On
Versions: 1 2 3 4 5 6 7 8 9 10 11 12 13 14 15 16 17 18 19 20 21 22 23 24 25 26 27
000
ASUS41 KRLX 221210
RWRRLX
West Virginia Regional Weather Roundup
National Weather Service Charleston WV
800 AM EDT THU JUN 22 2017

Note: "fair" indicates few or no clouds below 12,000 feet with no
significant weather and/or obstructions to visibility.

WVZ003-221300-
Northern Panhandle of West Virginia

CITY           SKY/WX    TMP DP  RH WIND       PRES   REMARKS
WHEELING       SUNNY     71  67  87 S6        30.02S
$$

WVZ009-221300-
Northwest West Virginia

CITY           SKY/WX    TMP DP  RH WIND       PRES   REMARKS
PARKERSBURG    CLOUDY    73  66  78 SW7       30.06S
$$

WVZ006-221300-
Western West Virginia

CITY           SKY/WX    TMP DP  RH WIND       PRES   REMARKS
HUNTINGTON     CLOUDY    73  65  75 S5        30.06R
$$

WVZ015-221300-
West Central West Virginia

CITY           SKY/WX    TMP DP  RH WIND       PRES   REMARKS
CHARLESTON     PTSUNNY   70  66  87 CALM      30.08R
$$

WVZ022-031-221300-
North Central West Virginia

CITY           SKY/WX    TMP DP  RH WIND       PRES   REMARKS
CLARKSBURG     CLOUDY    71  64  78 S7        30.07S
MORGANTOWN     CLOUDY    70  65  84 SE5       30.08S
$$

WVZ025-035-042-045-221300-
Southern West Virginia

CITY           SKY/WX    TMP DP  RH WIND       PRES   REMARKS
BECKLEY        PTSUNNY   67  62  84 SW3       30.17R
LOGAN            N/A     70  66  88 CALM      30.11S
BLUEFIELD      CLOUDY    65  61  87 W5        30.19R
LEWISBURG      MOSUNNY   64  61  91 CALM      30.17R
$$

WVZ047-221300-
Northern Mountains of West Virginia

CITY           SKY/WX    TMP DP  RH WIND       PRES   REMARKS
ELKINS         LGT RAIN  68  63  84 SE5       30.13R
$$

WVZ052-221300-
Eastern Panhandle of West Virginia

CITY           SKY/WX    TMP DP  RH WIND       PRES   REMARKS
MARTINSBURG    PTSUNNY   70  65  84 CALM      30.02R
PETERSBURG     CLOUDY    77  66  68 S7        30.05S
$$




USA.gov is the U.S. government's official web portal to all federal, state and local government web resources and services.